FW4702 Weather Reports


Display with metric or nautical units.
time (UTC)temp
F
wind
direction
speed
MPH
gust
MPH
rain 1hr
in
rain 24hr
in
rain mn
in
humidity
%
barometer
mb
20260504050556 47 0 0.0 0.0 0.00 0.00 0.00 91 1018.1
20260504045600 47 0 0.0 0.0 0.00 0.00 0.00 91 1018.0
20260504045055 47 0 0.0 0.0 0.00 0.00 0.00 91 1017.9
20260504044554 47 0 0.0 0.0 0.00 0.00 0.00 90 1017.9
20260504044055 47 0 0.0 0.0 0.00 0.00 0.00 90 1018.0
20260504043555 47 0 0.0 0.0 0.00 0.00 0.00 90 1017.9
20260504043112 47 0 0.0 0.0 0.00 0.00 0.00 89 1018.0
20260504042554 48 0 0.0 0.0 0.00 0.00 0.00 88 1018.1
20260504042059 48 0 0.0 0.0 0.00 0.00 0.00 87 1018.1
20260504041558 48 0 0.0 0.0 0.00 0.00 0.00 88 1017.9
20260504041056 48 0 0.0 0.0 0.00 0.00 0.00 88 1017.8
20260504040600 48 0 0.0 0.0 0.00 0.00 0.00 88 1017.8
20260504040058 48 0 0.0 0.0 0.00 0.00 0.00 89 1017.8
20260504035558 48 0 0.0 0.0 0.00 0.00 0.00 89 1017.9
20260504035056 48 0 0.0 0.0 0.00 0.00 0.00 89 1018.0
20260504034556 48 0 0.0 0.0 0.00 0.00 0.00 88 1018.1
20260504034055 48 0 0.0 0.0 0.00 0.00 0.00 88 1018.1
20260504033555 48 0 0.0 0.0 0.00 0.00 0.00 87 1018.1
20260504033104 48 0 0.0 0.0 0.00 0.00 0.00 86 1018.2
20260504032555 49 0 0.0 0.0 0.00 0.00 0.00 86 1018.3
20260504032055 48 0 0.0 0.0 0.00 0.00 0.00 86 1018.4
20260504031558 48 0 0.0 0.0 0.00 0.00 0.00 86 1018.4
20260504031056 49 0 0.0 0.0 0.00 0.00 0.00 86 1018.5
20260504030556 49 0 0.0 0.0 0.00 0.00 0.00 86 1018.5
20260504030114 49 0 0.0 0.0 0.00 0.00 0.00 85 1018.6
20260504025556 50 0 0.0 0.0 0.00 0.00 0.00 85 1018.6
20260504025056 50 0 0.0 0.0 0.00 0.00 0.00 84 1018.5
20260504024555 50 0 0.0 0.0 0.00 0.00 0.00 84 1018.5
20260504024055 50 0 0.0 0.0 0.00 0.00 0.00 84 1018.4
20260504023556 50 0 0.0 0.0 0.00 0.00 0.00 84 1018.3
20260504023058 50 0 0.0 0.0 0.00 0.00 0.00 81 1018.3
20260504022559 50 0 0.0 0.0 0.00 0.00 0.00 82 1018.3
20260504022058 50 0 0.0 0.0 0.00 0.00 0.00 83 1018.2
20260504021557 51 0 0.0 0.0 0.00 0.00 0.00 82 1018.1
20260504021055 51 0 0.0 0.0 0.00 0.00 0.00 80 1018.1
20260504020559 51 0 0.0 0.0 0.00 0.00 0.00 82 1018.0
20260504015555 52 0 0.0 0.0 0.00 0.00 0.00 81 1017.9
20260504015055 52 0 0.0 0.0 0.00 0.00 0.00 76 1017.8
20260504014604 52 0 0.0 0.0 0.00 0.00 0.00 80 1017.8
20260504014056 52 0 0.0 0.0 0.00 0.00 0.00 80 1017.7
20260504013556 52 0 0.0 0.0 0.00 0.00 0.00 80 1017.6
20260504013056 53 0 0.0 0.0 0.00 0.00 0.00 81 1017.6
20260504012556 53 0 0.0 0.0 0.00 0.00 0.00 79 1017.5
20260504012056 53 0 0.0 0.0 0.00 0.00 0.00 79 1017.4
20260504011556 54 0 0.0 0.0 0.00 0.00 0.00 79 1017.4
20260504011055 54 0 0.0 0.0 0.00 0.00 0.00 78 1017.3
20260504010556 54 0 0.0 0.0 0.00 0.00 0.00 76 1017.3
20260504010101 55 0 0.0 1.0 0.00 0.00 0.00 77 1017.4
20260504005556 55 0 0.0 1.0 0.00 0.00 0.00 73 1017.4
20260504005055 56 0 0.0 1.0 0.00 0.00 0.00 76 1017.4
20260504004556 56 0 0.0 0.0 0.00 0.00 0.00 73 1017.4
20260504004056 56 0 0.0 0.0 0.00 0.00 0.00 76 1017.3
20260504003555 56 0 0.0 0.0 0.00 0.00 0.00 74 1017.4
20260504003054 57 0 0.0 0.0 0.00 0.00 0.00 73 1017.3
20260504002555 58 0 0.0 0.0 0.00 0.00 0.00 70 1017.4
20260504002055 59 0 0.0 0.0 0.00 0.00 0.00 71 1017.5
20260504001600 59 0 0.0 0.0 0.00 0.00 0.00 70 1017.5
20260504001055 60 0 0.0 0.0 0.00 0.00 0.00 66 1017.5
20260504000556 60 0 0.0 2.0 0.00 0.00 0.00 61 1017.6
20260504000103 62 0 0.0 2.0 0.00 0.00 0.00 61 1017.6
20260503235556 62 0 0.0 2.0 0.00 0.00 0.00 55 1017.6
20260503235056 63 0 0.0 0.0 0.00 0.00 0.00 49 1017.5
20260503234555 63 0 0.0 2.0 0.00 0.00 0.00 49 1017.6
20260503234056 63 0 0.0 2.0 0.00 0.00 0.00 48 1017.7
20260503233558 64 0 0.0 1.0 0.00 0.00 0.00 48 1017.7
20260503233102 64 0 0.0 5.0 0.00 0.00 0.00 45 1017.7
20260503232600 65 0 0.0 5.0 0.00 0.00 0.00 43 1017.7
20260503232055 65 0 1.0 5.0 0.00 0.00 0.00 40 1017.8
20260503231556 65 319 1.0 4.0 0.00 0.00 0.00 41 1017.9
20260503231055 65 326 0.0 5.0 0.00 0.00 0.00 41 1017.9
20260503230556 65 0 0.0 5.0 0.00 0.00 0.00 43 1017.9
20260503230111 65 0 0.0 5.0 0.00 0.00 0.00 41 1017.9
20260503225555 65 0 0.0 3.0 0.00 0.00 0.00 40 1018.0
20260503225055 65 0 1.0 3.0 0.00 0.00 0.00 43 1018.0
20260503224556 65 0 0.0 4.0 0.00 0.00 0.00 46 1018.0
20260503224056 65 0 0.0 4.0 0.00 0.00 0.00 45 1018.0
20260503223556 65 0 0.0 4.0 0.00 0.00 0.00 42 1018.0
20260503223109 65 249 0.0 3.0 0.00 0.00 0.00 44 1018.0
20260503222556 65 189 0.0 9.0 0.00 0.00 0.00 48 1018.0
20260503222056 66 0 0.0 9.0 0.00 0.00 0.00 41 1018.1
20260503221555 65 292 1.0 5.0 0.00 0.00 0.00 46 1018.1
20260503221056 65 187 0.0 4.0 0.00 0.00 0.00 48 1018.3
20260503220556 66 0 0.0 9.0 0.00 0.00 0.00 42 1018.3
20260503220055 66 0 0.0 9.0 0.00 0.00 0.00 44 1018.3
20260503215556 66 0 2.0 9.0 0.00 0.00 0.00 41 1018.3
20260503215055 66 0 1.0 5.0 0.00 0.00 0.00 39 1018.3
20260503214559 66 0 0.0 5.0 0.00 0.00 0.00 44 1018.3
20260503214055 66 0 1.0 5.0 0.00 0.00 0.00 40 1018.4
20260503213555 66 0 0.0 3.0 0.00 0.00 0.00 44 1018.5
20260503213057 66 173 0.0 9.0 0.00 0.00 0.00 44 1018.5
20260503212555 66 208 2.0 11.0 0.00 0.00 0.00 43 1018.5
20260503212056 66 242 3.0 11.0 0.00 0.00 0.00 40 1018.7
20260503211553 66 315 1.0 5.0 0.00 0.00 0.00 40 1018.6
20260503211055 66 210 0.0 5.0 0.00 0.00 0.00 42 1018.7
20260503210556 66 262 1.0 4.0 0.00 0.00 0.00 48 1018.7
20260503210054 66 0 1.0 6.0 0.00 0.00 0.00 48 1018.7
20260503205555 66 281 1.0 6.0 0.00 0.00 0.00 42 1018.7
20260503205056 65 277 1.0 4.0 0.00 0.00 0.00 42 1018.7
20260503204554 66 342 0.0 4.0 0.00 0.00 0.00 42 1018.8
20260503204055 66 211 1.0 4.0 0.00 0.00 0.00 48 1018.9
20260503203555 66 189 0.0 4.0 0.00 0.00 0.00 46 1019.0
20260503203054 66 208 1.0 4.0 0.00 0.00 0.00 44 1019.2
20260503202556 66 202 0.0 3.0 0.00 0.00 0.00 43 1019.3
20260503202056 66 265 1.0 5.0 0.00 0.00 0.00 42 1019.6
20260503201556 66 179 1.0 5.0 0.00 0.00 0.00 39 1019.7
20260503201055 66 0 1.0 4.0 0.00 0.00 0.00 42 1019.8
20260503200555 65 187 1.0 7.0 0.00 0.00 0.00 44 1019.8
20260503200058 66 77 0.0 7.0 0.00 0.00 0.00 44 1020.0
20260503195556 65 280 1.0 5.0 0.00 0.00 0.00 44 1020.1
20260503195056 65 142 1.0 3.0 0.00 0.00 0.00 43 1020.2
20260503194616 66 216 1.0 3.0 0.00 0.00 0.00 44 1020.2
20260503194056 66 227 1.0 3.0 0.00 0.00 0.00 46 1020.3
20260503193557 66 197 0.0 4.0 0.00 0.00 0.00 45 1020.5
20260503193056 65 191 0.0 4.0 0.00 0.00 0.00 45 1020.6
20260503192556 65 196 0.0 3.0 0.00 0.00 0.00 46 1020.7
20260503192059 65 167 1.0 3.0 0.00 0.00 0.00 49 1020.7
20260503191601 65 0 1.0 4.0 0.00 0.00 0.00 44 1020.9
20260503191056 64 217 0.0 5.0 0.00 0.00 0.00 47 1021.0
20260503190556 64 277 1.0 5.0 0.00 0.00 0.00 47 1021.0
20260503190057 65 211 2.0 5.0 0.00 0.00 0.00 45 1021.1
20260503185555 64 235 1.0 5.0 0.00 0.00 0.00 50 1021.1
20260503185059 64 215 1.0 5.0 0.00 0.00 0.00 53 1021.2
20260503184557 64 231 2.0 7.0 0.00 0.00 0.00 50 1021.1
20260503184056 64 199 1.0 7.0 0.00 0.00 0.00 54 1021.3
20260503183556 64 0 1.0 7.0 0.00 0.00 0.00 53 1021.3
20260503183101 64 197 1.0 5.0 0.00 0.00 0.00 53 1021.3
20260503182555 64 220 2.0 4.0 0.00 0.00 0.00 50 1021.3
20260503182055 64 178 1.0 3.0 0.00 0.00 0.00 53 1021.4
20260503181607 64 220 1.0 5.0 0.00 0.00 0.00 51 1021.4
20260503181059 63 234 1.0 5.0 0.00 0.00 0.00 54 1021.4
20260503180555 63 195 1.0 4.0 0.00 0.00 0.00 52 1021.5
20260503180054 62 207 0.0 5.0 0.00 0.00 0.00 54 1021.6
20260503175555 62 177 2.0 5.0 0.00 0.00 0.00 51 1021.6
20260503175059 63 176 2.0 5.0 0.00 0.00 0.00 50 1021.6
20260503174613 63 217 0.0 4.0 0.00 0.00 0.00 52 1021.7
20260503174059 63 163 1.0 4.0 0.00 0.00 0.00 51 1021.6
20260503173556 63 199 1.0 5.0 0.00 0.00 0.00 54 1021.7
20260503173058 62 0 0.0 5.0 0.00 0.00 0.00 55 1021.7
20260503172557 62 163 0.0 5.0 0.00 0.00 0.00 56 1021.9
20260503172055 62 178 0.0 5.0 0.00 0.00 0.00 58 1021.9
20260503171558 62 202 1.0 6.0 0.00 0.00 0.00 54 1022.0
20260503171055 61 171 2.0 6.0 0.00 0.00 0.00 51 1022.0
20260503170556 62 221 1.0 5.0 0.00 0.00 0.00 53 1021.9
20260503170107 61 190 0.0 5.0 0.00 0.00 0.00 53 1022.1
20260503150556 57 59 1.0 4.0 0.00 0.00 0.00 64 1022.6
20260503131057 51 80 1.0 5.0 0.00 0.00 0.00 82 1022.3
20260503130557 50 56 1.0 4.0 0.00 0.00 0.00 82 1022.4
20260503120117 44 0 0.0 0.0 0.00 0.00 0.00 95 1021.9
20260503110558 42 0 0.0 0.0 0.00 0.00 0.00 95 1021.4
20260503081554 46 0 0.0 1.0 0.00 0.00 0.00 90 1020.7
20260503081055 46 0 0.0 1.0 0.00 0.00 0.00 90 1020.7
20260503080556 46 0 0.0 2.0 0.00 0.00 0.00 91 1020.7
20260503072558 45 0 0.0 0.0 0.00 0.00 0.00 91 1020.3
20260503072055 46 0 0.0 0.0 0.00 0.00 0.00 91 1020.3
20260503071600 46 0 0.0 0.0 0.00 0.00 0.00 91 1020.3
20260503071056 46 0 0.0 1.0 0.00 0.00 0.00 90 1020.3
20260503070558 46 0 0.0 1.0 0.00 0.00 0.00 90 1020.3
20260503055058 49 0 0.0 1.0 0.00 0.00 0.00 82 1020.0
20260503054600 49 0 0.0 1.0 0.00 0.00 0.00 82 1019.9